Flag for Germany Weather past 2 weeks in Neustadt am Rübenberge, Lower Saxony, Germany

Now
54 °F

Passing clouds.


Feels Like: 49 °F
Forecast: 51 / 65 °F
Wind: 14 mph from West

Location: Hannover

Current Time: Jul 30, 2015 at 5:00:16 AM

Latest Report: Jul 30, 2015 at 4:20 AM


Visibility: N/A

Pressure: 29.80 "Hg

Humidity: 82%

Dew point: 48 °F

Location of Neustadt am RübenbergeLocation

Historic Weather in Neustadt am Rübenberge — Graph

°F

Neustadt am Rübenberge temperature yesterday

Maximum temperature yesterday: 63 °F (at 11:20 AM)
Minimum temperature yesterday: 54 °F (at 6:20 AM)
Average temperature yesterday: 58 °F

Past Weeks' High & Low Weather Summary

 TemperatureHumidityPressure
High90 °F (Jul 17, 3:50 PM)100% (Jul 15, 5:50 AM)30.12 "Hg (Jul 15, 5:50 AM)
Low52 °F (Jul 26, 5:50 AM)33% (Jul 17, 3:50 PM)29.47 "Hg (Jul 25, 12:50 PM)
Average65 °F76%29.85 "Hg
* Reported Jul 15 3:20 AM — Jul 30 3:50 AM, Neustadt am Rübenberge, Weather by CustomWeather, © 2015

Note: Actual official high and low records may vary slightly from our data, if they occured in-between our weather recording intervals... More about our weather records

Advertising

Neustadt am Rübenberge weather history for previous 24 hours

 ConditionsComfort  
Time TempWeatherWind HumidityBarometerVisibility
3:50 AM
Thu, Jul 30
55 °FPassing clouds.14 mph82%29.80 "HgN/A
3:20 AM55 °FPartly cloudy.15 mph82%29.80 "HgN/A
2:50 AM55 °FPartly cloudy.16 mph82%29.77 "HgN/A
2:20 AM55 °FPassing clouds.14 mph82%29.77 "HgN/A
1:50 AM55 °FPassing clouds.14 mph82%29.77 "HgN/A
1:20 AM57 °FPassing clouds.16 mph77%29.77 "HgN/A
12:50 AM57 °FPassing clouds.18 mph77%29.77 "HgN/A
12:20 AM57 °FPassing clouds.14 mph77%29.77 "HgN/A
11:50 PM
Wed, Jul 29
57 °FPassing clouds.17 mph77%29.74 "HgN/A
11:20 PM57 °FPassing clouds.18 mph77%29.74 "HgN/A
10:50 PM55 °FSprinkles. Partly cloudy.14 mph82%29.74 "HgN/A
10:20 PM55 °FSprinkles. Partly cloudy.14 mph82%29.74 "HgN/A
9:50 PM57 °FSprinkles. Broken clouds.17 mph77%29.74 "HgN/A
9:20 PM55 °FScattered showers. Broken clouds.16 mph82%29.74 "HgN/A
8:50 PM55 °FBroken clouds.17 mph82%29.71 "HgN/A
8:20 PM55 °FSprinkles. Broken clouds.14 mph88%29.71 "HgN/A
7:50 PM57 °FSprinkles. Broken clouds.12 mph82%29.71 "HgN/A
7:20 PM55 °FBroken clouds.12 mph88%29.71 "HgN/A
6:50 PM55 °FPartly sunny.23 mph82%29.71 "HgN/A
6:20 PM59 °FBroken clouds.16 mph72%29.71 "HgN/A
5:50 PM61 °FBroken clouds.13 mph72%29.68 "HgN/A
5:20 PM59 °FSprinkles. Partly sunny.16 mph68%29.71 "HgN/A
4:50 PM63 °FBroken clouds.17 mph59%29.68 "HgN/A
4:20 PM61 °FBroken clouds.14 mph59%29.68 "HgN/A
3:50 PM59 °FPartly sunny.17 mph68%29.68 "HgN/A
3:20 PM57 °FBroken clouds.14 mph77%29.68 "HgN/A
2:50 PM55 °FBroken clouds.21 mph77%29.68 "HgN/A
2:20 PM61 °FScattered clouds.12 mph68%29.68 "HgN/A
1:50 PM61 °FScattered clouds.13 mph68%29.68 "HgN/A
1:20 PM55 °FScattered showers. Scattered clouds.9 mph82%29.68 "HgN/A
12:50 PM61 °FThundershowers. Broken clouds.16 mph63%29.68 "HgN/A
12:20 PM63 °FScattered clouds.16 mph59%29.68 "HgN/A
11:50 AM63 °FScattered clouds.17 mph59%29.68 "HgN/A
11:20 AM63 °FScattered clouds.17 mph64%29.68 "HgN/A
10:50 AM59 °FBroken clouds.15 mph72%29.68 "HgN/A
10:20 AM59 °FScattered clouds.15 mph72%29.68 "HgN/A
9:50 AM59 °FScattered clouds.12 mph72%29.68 "HgN/A
9:20 AM59 °FScattered clouds.16 mph72%29.68 "HgN/A
8:50 AM57 °FScattered clouds.16 mph77%29.68 "HgN/A
8:20 AM57 °FScattered clouds.13 mph77%29.68 "HgN/A
7:50 AM55 °FScattered clouds.14 mph77%29.68 "HgN/A
7:20 AM55 °FScattered clouds.13 mph77%29.68 "HgN/A
6:50 AM54 °FScattered clouds.12 mph82%29.68 "HgN/A
6:20 AM54 °FPassing clouds.14 mph77%29.68 "HgN/A
5:50 AM55 °FClear.12 mph77%29.68 "Hg10 mi
5:20 AM55 °FPassing clouds.10 mph77%29.68 "HgN/A
Weather by CustomWeather, © 2015

See weather overviewHow to use our weather pages